FW7512 Weather Reports


time (UTC)temp
F
wind
direction
speed
knots
gust
knots
rain 1hr
in
rain 24hr
in
rain mn
in
humidity
%
barometer
mb
20260505041518 65 190 0.0 0.0 0.00 0.00 0.00 71 1006.6
20260505041008 65 190 0.0 0.9 0.00 0.00 0.00 70 1006.6
20260505040600 65 190 0.0 0.9 0.00 0.00 0.00 70 1006.7
20260505040016 64 190 0.0 0.0 0.00 0.00 0.00 71 1006.7
20260505035509 64 190 0.0 0.0 0.00 0.00 0.00 72 1006.8
20260505035000 64 190 0.0 0.0 0.00 0.00 0.00 73 1006.7
20260505034524 64 190 0.0 0.0 0.00 0.00 0.00 72 1006.7
20260505034012 64 190 0.0 0.0 0.00 0.00 0.00 71 1006.7
20260505033507 65 190 0.0 0.0 0.00 0.00 0.00 72 1006.7
20260505033025 64 190 0.0 0.0 0.00 0.00 0.00 72 1006.6
20260505032518 64 190 0.0 0.9 0.00 0.00 0.00 73 1006.6
20260505032011 63 190 0.0 0.9 0.00 0.00 0.00 75 1006.6
20260505031531 63 190 0.0 0.0 0.00 0.00 0.00 76 1006.6
20260505031023 63 190 0.0 0.0 0.00 0.00 0.00 76 1006.4
20260505030515 62 190 0.0 0.9 0.00 0.00 0.00 77 1006.4
20260505030037 61 190 0.0 0.9 0.00 0.00 0.00 79 1006.4
20260505025531 61 190 0.0 0.0 0.00 0.00 0.00 80 1006.3
20260505025023 61 190 0.0 0.0 0.00 0.00 0.00 82 1006.2
20260505024548 61 190 0.0 0.0 0.00 0.00 0.00 82 1006.1
20260505024041 61 190 0.0 0.0 0.00 0.00 0.00 81 1006.0
20260505023534 61 190 0.0 0.0 0.00 0.00 0.00 81 1006.0
20260505023003 61 190 0.0 0.0 0.00 0.00 0.00 81 1005.9
20260505022557 61 190 0.0 0.0 0.00 0.00 0.00 81 1005.9
20260505022051 62 190 0.0 0.0 0.00 0.00 0.00 80 1005.9
20260505021508 62 190 0.0 0.0 0.00 0.00 0.00 80 1005.8
20260505021101 62 190 0.0 0.0 0.00 0.00 0.00 80 1005.7
20260505020555 62 190 0.0 0.0 0.00 0.00 0.00 80 1005.6
20260505020025 62 190 0.0 0.0 0.00 0.00 0.00 79 1005.5
20260505015519 62 190 0.0 0.0 0.00 0.00 0.00 78 1005.5
20260505015013 63 190 0.0 0.0 0.00 0.00 0.00 78 1005.5
20260505014535 63 190 0.0 0.0 0.00 0.00 0.00 77 1005.4
20260505014026 63 190 0.0 0.0 0.00 0.00 0.00 76 1005.4
20260505013523 63 190 0.0 0.0 0.00 0.00 0.00 77 1005.3
20260505013041 63 190 0.0 0.0 0.00 0.00 0.00 75 1005.2
20260505012532 64 190 0.0 0.0 0.00 0.00 0.00 75 1005.2
20260505012031 64 190 0.0 0.0 0.00 0.00 0.00 74 1005.2
20260505011606 65 190 0.0 0.0 0.00 0.00 0.00 74 1005.2
20260505011041 66 190 0.0 0.9 0.00 0.00 0.00 72 1005.2
20260505010535 66 190 0.0 0.0 0.00 0.00 0.00 72 1005.2
20260505010057 67 190 0.0 0.9 0.00 0.00 0.00 69 1005.1
20260505005547 68 190 0.0 0.9 0.00 0.00 0.00 68 1005.1
20260505005041 69 190 0.0 0.0 0.00 0.00 0.00 64 1005.1
20260505004511 70 190 0.0 0.0 0.00 0.00 0.00 64 1005.1
20260505004002 70 190 0.0 0.0 0.00 0.00 0.00 59 1005.1
20260505003555 71 190 0.0 0.0 0.00 0.00 0.00 58 1005.1
20260505003029 71 190 0.0 0.9 0.00 0.00 0.00 58 1005.1
20260505002524 71 190 0.0 0.9 0.00 0.00 0.00 56 1005.2
20260505002018 72 190 0.0 0.0 0.00 0.00 0.00 56 1005.2
20260505001534 72 190 0.0 0.9 0.00 0.00 0.00 55 1005.1
20260505001023 73 190 0.0 2.6 0.00 0.00 0.00 54 1005.2
20260505000516 73 190 0.0 0.9 0.00 0.00 0.00 54 1005.3
20260505000043 73 190 0.0 3.5 0.00 0.00 0.00 53 1005.4
20260504235530 73 190 0.0 3.5 0.00 0.00 0.00 53 1005.4
20260504235022 73 190 0.0 2.6 0.00 0.00 0.00 53 1005.5
20260504234543 74 190 0.0 2.6 0.00 0.00 0.00 53 1005.6
20260504234035 74 190 0.0 2.6 0.00 0.00 0.00 52 1005.6
20260504233529 74 190 0.0 0.9 0.00 0.00 0.00 53 1005.7
20260504233106 75 190 0.0 1.7 0.00 0.00 0.00 52 1005.6
20260504232543 75 190 0.0 1.7 0.00 0.00 0.00 51 1005.7
20260504232034 76 190 0.0 2.6 0.00 0.00 0.00 52 1005.6
20260504231558 76 190 0.0 3.5 0.00 0.00 0.00 49 1005.6
20260504231048 76 190 0.0 3.5 0.00 0.00 0.00 50 1005.6
20260504230539 76 190 0.0 8.7 0.00 0.00 0.00 50 1005.7
20260504230101 76 190 0.0 8.7 0.00 0.00 0.00 52 1005.7
20260504225556 76 190 0.0 0.9 0.00 0.00 0.00 54 1005.7
20260504225041 75 190 0.0 2.6 0.00 0.00 0.00 53 1005.8
20260504224512 75 190 0.0 1.7 0.00 0.00 0.00 55 1005.8
20260504224002 75 190 0.0 5.2 0.00 0.00 0.00 56 1005.8
20260504223557 76 190 0.0 5.2 0.00 0.00 0.00 55 1005.8
20260504223020 76 190 0.0 0.9 0.00 0.00 0.00 59 1005.9
20260504222508 77 190 0.0 0.9 0.00 0.00 0.00 57 1005.9
20260504222001 76 190 0.0 0.9 0.00 0.00 0.00 55 1005.8
20260504221523 76 190 0.0 5.2 0.00 0.00 0.00 55 1005.8
20260504221017 76 190 0.0 5.2 0.00 0.00 0.00 55 1005.8
20260504220504 76 190 0.0 0.0 0.00 0.00 0.00 58 1006.0
20260504220024 77 190 0.0 0.9 0.00 0.00 0.00 54 1006.2
20260504215512 77 190 0.0 1.7 0.00 0.00 0.00 53 1006.4
20260504215005 77 190 0.0 1.7 0.00 0.00 0.00 55 1006.5
20260504214525 77 190 0.0 0.0 0.00 0.00 0.00 57 1006.6
20260504214018 78 190 0.0 0.0 0.00 0.00 0.00 52 1006.5
20260504213508 78 190 0.0 1.7 0.00 0.00 0.00 53 1006.5
20260504213038 78 190 0.0 1.7 0.00 0.00 0.00 49 1006.7
20260504212529 78 190 0.0 0.9 0.00 0.00 0.00 52 1006.7
20260504212021 78 190 0.0 0.9 0.00 0.00 0.00 53 1006.8
20260504211541 79 190 0.0 2.6 0.00 0.00 0.00 53 1006.8
20260504211034 80 190 0.9 2.6 0.00 0.00 0.00 48 1007.0
20260504210525 79 190 0.0 1.7 0.00 0.00 0.00 54 1007.0
20260504210046 79 190 0.0 3.5 0.00 0.00 0.00 52 1007.0
20260504205539 78 190 0.0 3.5 0.00 0.00 0.00 53 1006.9
20260504205027 79 190 0.0 1.7 0.00 0.00 0.00 52 1007.1
20260504204546 79 190 0.0 4.3 0.00 0.00 0.00 51 1007.3
20260504204035 78 190 0.0 4.3 0.00 0.00 0.00 53 1007.5
20260504203527 78 190 0.9 2.6 0.00 0.00 0.00 54 1007.6
20260504203056 77 190 0.0 1.7 0.00 0.00 0.00 52 1007.5
20260504202539 77 190 0.0 6.1 0.00 0.00 0.00 53 1007.5
20260504202034 78 190 0.9 6.1 0.00 0.00 0.00 49 1007.6
20260504201544 78 190 0.0 3.5 0.00 0.00 0.00 50 1007.6
20260504201036 79 190 0.9 4.3 0.00 0.00 0.00 52 1007.6
20260504200524 79 190 0.0 2.6 0.00 0.00 0.00 52 1007.8
20260504200044 79 190 0.0 2.6 0.00 0.00 0.00 53 1007.6
20260504195532 78 190 0.0 1.7 0.00 0.00 0.00 55 1007.8
20260504195022 76 190 0.0 1.7 0.00 0.00 0.00 59 1007.9
20260504194547 76 190 0.0 2.6 0.00 0.00 0.00 56 1008.1
20260504194034 77 190 0.0 2.6 0.00 0.00 0.00 56 1008.4
20260504193523 76 190 0.0 2.6 0.00 0.00 0.00 61 1008.3
20260504193042 75 190 0.0 2.6 0.00 0.00 0.00 61 1008.3
20260504192531 74 190 0.0 1.7 0.00 0.00 0.00 62 1008.5
20260504192026 73 190 0.0 4.3 0.00 0.00 0.00 61 1008.4
20260504191605 74 190 0.0 4.3 0.00 0.00 0.00 62 1008.6
20260504191039 73 190 0.0 1.7 0.00 0.00 0.00 63 1008.7
20260504190531 72 190 0.0 0.9 0.00 0.00 0.00 64 1008.6
20260504190052 71 190 0.0 1.7 0.00 0.00 0.00 64 1008.8
20260504185543 70 190 0.0 2.6 0.00 0.00 0.00 64 1009.0
20260504185039 70 190 0.0 2.6 0.00 0.00 0.00 64 1009.0
20260504184558 71 190 0.0 3.5 0.00 0.00 0.00 64 1009.0
20260504184053 71 190 0.0 3.5 0.00 0.00 0.00 63 1009.0
20260504183544 72 190 0.0 2.6 0.00 0.00 0.00 61 1008.8
20260504183005 71 190 0.0 3.5 0.00 0.00 0.00 61 1008.8
20260504182601 71 190 0.0 5.2 0.00 0.00 0.00 61 1008.7
20260504182049 72 190 0.0 5.2 0.00 0.00 0.00 59 1008.6
20260504181507 72 190 0.0 2.6 0.00 0.00 0.00 61 1008.5
20260504181001 72 190 0.0 3.5 0.00 0.00 0.00 59 1008.4
20260504180601 72 190 0.9 3.5 0.00 0.00 0.00 59 1008.3
20260504180014 73 190 0.0 3.5 0.00 0.00 0.00 58 1008.1
20260504175513 73 190 0.0 3.5 0.00 0.00 0.00 59 1008.1
20260504175100 73 190 0.0 3.5 0.00 0.00 0.00 59 1008.1
20260504174517 73 190 0.0 3.5 0.00 0.00 0.00 62 1008.1
20260504174007 72 190 0.0 4.3 0.00 0.00 0.00 62 1008.2
20260504173559 72 190 0.9 4.3 0.00 0.00 0.00 60 1008.3
20260504173028 71 190 0.9 2.6 0.00 0.00 0.00 64 1008.6
20260504172516 71 190 0.0 0.9 0.00 0.00 0.00 63 1008.5
20260504172008 70 190 0.0 0.9 0.00 0.00 0.00 66 1008.2
20260504171543 70 190 0.0 1.7 0.00 0.00 0.00 63 1007.6
20260504171018 70 190 0.0 1.7 0.00 0.00 0.00 63 1008.2
20260504170507 70 190 0.0 1.7 0.00 0.00 0.00 62 1008.3
20260504151038 65 190 0.0 3.5 0.00 0.00 0.00 67 1009.4
20260504150532 65 190 0.0 4.3 0.00 0.00 0.00 66 1009.3
20260504141042 62 190 0.0 2.6 0.00 0.00 0.00 70 1009.6
20260504140532 62 190 0.0 2.6 0.00 0.00 0.00 71 1009.7
20260504130534 56 190 0.0 3.5 0.00 0.00 0.00 76 1010.0
20260504110547 0 0.0 0.0 0.00 0.00 0.00 1009.9
20260504100516 46 49 0.0 0.0 0.00 0.00 0.00 85 1010.3
20260504090117 46 49 0.0 0.0 0.00 0.00 0.00 85 1010.7
20260504081514 46 49 0.0 0.0 0.00 0.00 0.00 85 1011.0
20260504081005 46 49 0.0 0.0 0.00 0.00 0.00 84 1011.0
20260504080558 46 49 0.0 0.0 0.00 0.00 0.00 84 1011.1
20260504050537 48 52 0.0 0.0 0.00 0.00 0.00 80 1012.5
20260504045553 48 52 0.0 0.0 0.00 0.00 0.00 81 1012.5
20260504045038 48 51 0.0 0.0 0.00 0.00 0.00 80 1012.6
20260504044511 48 52 0.0 0.0 0.00 0.00 0.00 79 1012.7
20260504044057 48 52 0.0 0.0 0.00 0.00 0.00 79 1012.6
20260504043550 48 52 0.0 0.0 0.00 0.00 0.00 78 1012.7
20260504043023 48 51 0.0 0.0 0.00 0.00 0.00 78 1012.6
20260504042510 48 52 0.0 0.0 0.00 0.00 0.00 79 1012.6
20260504042102 48 52 0.0 0.0 0.00 0.00 0.00 78 1012.6